| time (UTC) | temp F | wind direction | speed MPH | gust MPH | rain 1hr in | rain 24hr in | rain mn in | humidity % | barometer mb |
| 20260902045523 | 87 | 0 | 2.0 | 8.0 | 0.00 | 0.00 | 0.00 | 59 | 1015.3 |
| 20260902045027 | 87 | 175 | 1.0 | 10.0 | 0.00 | 0.00 | 0.00 | 58 | 1015.3 |
| 20260902044543 | 87 | 171 | 3.0 | 10.0 | 0.00 | 0.00 | 0.00 | 58 | 1015.3 |
| 20260902044025 | 87 | 0 | 2.0 | 9.0 | 0.00 | 0.00 | 0.00 | 58 | 1015.3 |
| 20260902043522 | 87 | 159 | 2.0 | 10.0 | 0.00 | 0.00 | 0.00 | 57 | 1015.4 |
| 20260902043041 | 88 | 243 | 3.0 | 10.0 | 0.00 | 0.00 | 0.00 | 57 | 1015.4 |
| 20260902042526 | 88 | 196 | 2.0 | 7.0 | 0.00 | 0.00 | 0.00 | 56 | 1015.3 |
| 20260902042024 | 88 | 154 | 2.0 | 8.0 | 0.00 | 0.00 | 0.00 | 55 | 1015.3 |
| 20260902041547 | 88 | 162 | 2.0 | 8.0 | 0.00 | 0.00 | 0.00 | 54 | 1015.3 |
| 20260902041025 | 89 | 185 | 2.0 | 8.0 | 0.00 | 0.00 | 0.00 | 53 | 1015.1 |
| 20260902040525 | 89 | 188 | 2.0 | 9.0 | 0.00 | 0.00 | 0.00 | 53 | 1015.1 |
| 20260902040045 | 89 | 152 | 3.0 | 9.0 | 0.00 | 0.00 | 0.00 | 53 | 1015.0 |
| 20260902035521 | 89 | 165 | 1.0 | 5.0 | 0.00 | 0.00 | 0.00 | 54 | 1015.0 |
| 20260902035024 | 89 | 172 | 0.0 | 5.0 | 0.00 | 0.00 | 0.00 | 53 | 1015.0 |
| 20260902034555 | 89 | 152 | 1.0 | 5.0 | 0.00 | 0.00 | 0.00 | 54 | 1014.9 |
| 20260902034028 | 89 | 0 | 0.0 | 3.0 | 0.00 | 0.00 | 0.00 | 53 | 1015.0 |
| 20260902033521 | 89 | 157 | 0.0 | 3.0 | 0.00 | 0.00 | 0.00 | 53 | 1015.0 |
| 20260902033054 | 89 | 167 | 0.0 | 3.0 | 0.00 | 0.00 | 0.00 | 52 | 1015.1 |
| 20260902032525 | 89 | 0 | 0.0 | 4.0 | 0.00 | 0.00 | 0.00 | 52 | 1015.1 |
| 20260902032030 | 90 | 0 | 1.0 | 4.0 | 0.00 | 0.00 | 0.00 | 52 | 1014.9 |
| 20260902031551 | 90 | 166 | 1.0 | 3.0 | 0.00 | 0.00 | 0.00 | 51 | 1015.0 |
| 20260902031024 | 90 | 137 | 0.0 | 5.0 | 0.00 | 0.00 | 0.00 | 51 | 1014.9 |
| 20260902030523 | 90 | 146 | 1.0 | 5.0 | 0.00 | 0.00 | 0.00 | 51 | 1014.8 |
| 20260902030044 | 90 | 132 | 1.0 | 4.0 | 0.00 | 0.00 | 0.00 | 50 | 1014.7 |
| 20260902025527 | 90 | 161 | 1.0 | 4.0 | 0.00 | 0.00 | 0.00 | 50 | 1014.6 |
| 20260902025022 | 90 | 159 | 0.0 | 3.0 | 0.00 | 0.00 | 0.00 | 50 | 1014.5 |
| 20260902024548 | 90 | 165 | 1.0 | 3.0 | 0.00 | 0.00 | 0.00 | 50 | 1014.4 |
| 20260902024025 | 90 | 0 | 0.0 | 3.0 | 0.00 | 0.00 | 0.00 | 50 | 1014.4 |
| 20260902023523 | 90 | 0 | 0.0 | 3.0 | 0.00 | 0.00 | 0.00 | 49 | 1014.4 |
| 20260902023047 | 91 | 0 | 1.0 | 6.0 | 0.00 | 0.00 | 0.00 | 49 | 1014.3 |
| 20260902022524 | 91 | 180 | 0.0 | 6.0 | 0.00 | 0.00 | 0.00 | 49 | 1014.2 |
| 20260902022024 | 91 | 155 | 0.0 | 5.0 | 0.00 | 0.00 | 0.00 | 49 | 1014.2 |
| 20260902021544 | 91 | 167 | 0.0 | 3.0 | 0.00 | 0.00 | 0.00 | 48 | 1014.1 |
| 20260902021024 | 91 | 132 | 0.0 | 3.0 | 0.00 | 0.00 | 0.00 | 48 | 1014.1 |
| 20260902020520 | 91 | 167 | 0.0 | 5.0 | 0.00 | 0.00 | 0.00 | 48 | 1014.0 |
| 20260902020042 | 91 | 184 | 1.0 | 7.0 | 0.00 | 0.00 | 0.00 | 47 | 1013.9 |
| 20260902015523 | 91 | 148 | 2.0 | 7.0 | 0.00 | 0.00 | 0.00 | 48 | 1013.8 |
| 20260902015024 | 91 | 154 | 1.0 | 3.0 | 0.00 | 0.00 | 0.00 | 48 | 1013.7 |
| 20260902014546 | 91 | 92 | 0.0 | 3.0 | 0.00 | 0.00 | 0.00 | 48 | 1013.7 |
| 20260902014024 | 91 | 0 | 0.0 | 3.0 | 0.00 | 0.00 | 0.00 | 48 | 1013.6 |
| 20260902013523 | 91 | 0 | 0.0 | 1.0 | 0.00 | 0.00 | 0.00 | 47 | 1013.5 |
| 20260902013044 | 91 | 0 | 0.0 | 1.0 | 0.00 | 0.00 | 0.00 | 47 | 1013.5 |
| 20260902012524 | 92 | 153 | 0.0 | 1.0 | 0.00 | 0.00 | 0.00 | 47 | 1013.5 |
| 20260902012025 | 92 | 0 | 0.0 | 3.0 | 0.00 | 0.00 | 0.00 | 47 | 1013.4 |
| 20260902011544 | 92 | 0 | 0.0 | 3.0 | 0.00 | 0.00 | 0.00 | 47 | 1013.3 |
| 20260902011022 | 92 | 140 | 0.0 | 1.0 | 0.00 | 0.00 | 0.00 | 47 | 1013.3 |
| 20260902010523 | 92 | 0 | 0.0 | 2.0 | 0.00 | 0.00 | 0.00 | 46 | 1013.3 |
| 20260902010041 | 93 | 0 | 0.0 | 2.0 | 0.00 | 0.00 | 0.00 | 46 | 1013.3 |
| 20260902005524 | 93 | 0 | 0.0 | 2.0 | 0.00 | 0.00 | 0.00 | 45 | 1013.3 |
| 20260902005024 | 93 | 0 | 0.0 | 5.0 | 0.00 | 0.00 | 0.00 | 45 | 1013.2 |
| 20260902004547 | 94 | 154 | 0.0 | 5.0 | 0.00 | 0.00 | 0.00 | 44 | 1013.2 |
| 20260902004024 | 94 | 192 | 0.0 | 2.0 | 0.00 | 0.00 | 0.00 | 43 | 1013.3 |
| 20260902003526 | 94 | 153 | 0.0 | 7.0 | 0.00 | 0.00 | 0.00 | 44 | 1013.3 |
| 20260902003046 | 94 | 145 | 2.0 | 7.0 | 0.00 | 0.00 | 0.00 | 43 | 1013.3 |
| 20260902002521 | 94 | 85 | 1.0 | 6.0 | 0.00 | 0.00 | 0.00 | 43 | 1013.4 |
| 20260902002022 | 95 | 99 | 1.0 | 11.0 | 0.00 | 0.00 | 0.00 | 43 | 1013.4 |
| 20260902001542 | 95 | 192 | 3.0 | 11.0 | 0.00 | 0.00 | 0.00 | 42 | 1013.5 |
| 20260902001024 | 95 | 161 | 1.0 | 6.0 | 0.00 | 0.00 | 0.00 | 42 | 1013.6 |
| 20260902000525 | 95 | 159 | 2.0 | 5.0 | 0.00 | 0.00 | 0.00 | 42 | 1013.5 |
| 20260902000045 | 95 | 0 | 0.0 | 3.0 | 0.00 | 0.00 | 0.00 | 43 | 1013.5 |
| 20260901235525 | 95 | 209 | 1.0 | 3.0 | 0.00 | 0.00 | 0.00 | 42 | 1013.5 |
| 20260901235024 | 95 | 115 | 0.0 | 5.0 | 0.00 | 0.00 | 0.00 | 42 | 1013.6 |
| 20260901234553 | 95 | 171 | 0.0 | 6.0 | 0.00 | 0.00 | 0.00 | 42 | 1013.6 |
| 20260901234027 | 95 | 185 | 2.0 | 8.0 | 0.00 | 0.00 | 0.00 | 42 | 1013.6 |
| 20260901233520 | 95 | 175 | 1.0 | 9.0 | 0.00 | 0.00 | 0.00 | 42 | 1013.6 |
| 20260901233045 | 96 | 153 | 2.0 | 9.0 | 0.00 | 0.00 | 0.00 | 41 | 1013.7 |
| 20260901232524 | 96 | 194 | 2.0 | 6.0 | 0.00 | 0.00 | 0.00 | 41 | 1013.7 |
| 20260901232026 | 96 | 163 | 2.0 | 8.0 | 0.00 | 0.00 | 0.00 | 40 | 1013.8 |
| 20260901231541 | 97 | 189 | 1.0 | 10.0 | 0.00 | 0.00 | 0.00 | 40 | 1013.8 |
| 20260901231024 | 97 | 175 | 3.0 | 10.0 | 0.00 | 0.00 | 0.00 | 40 | 1013.8 |
| 20260901230527 | 97 | 172 | 2.0 | 10.0 | 0.00 | 0.00 | 0.00 | 40 | 1013.8 |
| 20260901230046 | 97 | 173 | 3.0 | 10.0 | 0.00 | 0.00 | 0.00 | 40 | 1013.7 |
| 20260901225525 | 98 | 80 | 2.0 | 6.0 | 0.00 | 0.00 | 0.00 | 39 | 1013.7 |
| 20260901225025 | 98 | 192 | 2.0 | 6.0 | 0.00 | 0.00 | 0.00 | 38 | 1013.7 |
| 20260901224551 | 99 | 191 | 2.0 | 5.0 | 0.00 | 0.00 | 0.00 | 37 | 1013.7 |
| 20260901224021 | 99 | 152 | 1.0 | 4.0 | 0.00 | 0.00 | 0.00 | 37 | 1013.7 |
| 20260901223521 | 98 | 198 | 1.0 | 7.0 | 0.00 | 0.00 | 0.00 | 38 | 1013.7 |
| 20260901223045 | 98 | 186 | 2.0 | 7.0 | 0.00 | 0.00 | 0.00 | 38 | 1013.7 |
| 20260901222527 | 97 | 167 | 1.0 | 7.0 | 0.00 | 0.00 | 0.00 | 39 | 1013.7 |
| 20260901222025 | 97 | 165 | 2.0 | 6.0 | 0.00 | 0.00 | 0.00 | 39 | 1013.8 |
| 20260901221546 | 97 | 183 | 1.0 | 8.0 | 0.00 | 0.00 | 0.00 | 38 | 1013.8 |
| 20260901221024 | 98 | 202 | 2.0 | 11.0 | 0.00 | 0.00 | 0.00 | 38 | 1013.7 |
| 20260901220526 | 99 | 113 | 2.0 | 11.0 | 0.00 | 0.00 | 0.00 | 37 | 1013.7 |
| 20260901220042 | 99 | 109 | 4.0 | 11.0 | 0.00 | 0.00 | 0.00 | 38 | 1013.8 |
| 20260901215521 | 98 | 159 | 4.0 | 10.0 | 0.00 | 0.00 | 0.00 | 38 | 1013.9 |
| 20260901215020 | 98 | 116 | 4.0 | 10.0 | 0.00 | 0.00 | 0.00 | 38 | 1014.0 |
| 20260901214545 | 98 | 0 | 1.0 | 6.0 | 0.00 | 0.00 | 0.00 | 40 | 1014.0 |
| 20260901214024 | 97 | 161 | 2.0 | 6.0 | 0.00 | 0.00 | 0.00 | 39 | 1014.0 |
| 20260901213524 | 97 | 161 | 0.0 | 9.0 | 0.00 | 0.00 | 0.00 | 40 | 1014.1 |
| 20260901213046 | 97 | 0 | 2.0 | 9.0 | 0.00 | 0.00 | 0.00 | 40 | 1014.2 |
| 20260901212524 | 98 | 153 | 1.0 | 7.0 | 0.00 | 0.00 | 0.00 | 39 | 1014.2 |
| 20260901212025 | 99 | 156 | 1.0 | 9.0 | 0.00 | 0.00 | 0.00 | 37 | 1014.2 |
| 20260901211542 | 99 | 198 | 3.0 | 9.0 | 0.00 | 0.00 | 0.00 | 38 | 1014.4 |
| 20260901211023 | 98 | 76 | 2.0 | 10.0 | 0.00 | 0.00 | 0.00 | 39 | 1014.5 |
| 20260901210524 | 99 | 76 | 3.0 | 10.0 | 0.00 | 0.00 | 0.00 | 37 | 1014.5 |
| 20260901210047 | 100 | 187 | 5.0 | 10.0 | 0.00 | 0.00 | 0.00 | 37 | 1014.4 |
| 20260901205523 | 99 | 104 | 1.0 | 4.0 | 0.00 | 0.00 | 0.00 | 39 | 1014.5 |
| 20260901205026 | 98 | 275 | 0.0 | 6.0 | 0.00 | 0.00 | 0.00 | 39 | 1014.6 |
| 20260901204544 | 99 | 148 | 1.0 | 11.0 | 0.00 | 0.00 | 0.00 | 37 | 1014.6 |
| 20260901204030 | 100 | 68 | 5.0 | 13.0 | 0.00 | 0.00 | 0.00 | 37 | 1014.6 |
| 20260901203524 | 100 | 93 | 3.0 | 13.0 | 0.00 | 0.00 | 0.00 | 36 | 1014.6 |
| 20260901203048 | 100 | 100 | 3.0 | 13.0 | 0.00 | 0.00 | 0.00 | 37 | 1014.7 |
| 20260901202523 | 99 | 57 | 1.0 | 7.0 | 0.00 | 0.00 | 0.00 | 37 | 1014.8 |
| 20260901202026 | 99 | 70 | 1.0 | 10.0 | 0.00 | 0.00 | 0.00 | 37 | 1014.8 |
| 20260901201540 | 98 | 155 | 4.0 | 10.0 | 0.00 | 0.00 | 0.00 | 38 | 1014.9 |
| 20260901201025 | 97 | 98 | 1.0 | 9.0 | 0.00 | 0.00 | 0.00 | 41 | 1015.0 |
| 20260901200526 | 98 | 0 | 1.0 | 10.0 | 0.00 | 0.00 | 0.00 | 39 | 1015.0 |
| 20260901195524 | 97 | 147 | 1.0 | 7.0 | 0.00 | 0.00 | 0.00 | 41 | 1015.1 |
| 20260901195029 | 97 | 113 | 3.0 | 9.0 | 0.00 | 0.00 | 0.00 | 41 | 1015.2 |
| 20260901194556 | 98 | 147 | 3.0 | 9.0 | 0.00 | 0.00 | 0.00 | 39 | 1015.2 |
| 20260901194023 | 98 | 126 | 1.0 | 9.0 | 0.00 | 0.00 | 0.00 | 39 | 1015.2 |
| 20260901193524 | 97 | 79 | 3.0 | 10.0 | 0.00 | 0.00 | 0.00 | 41 | 1015.3 |
| 20260901193052 | 98 | 124 | 2.0 | 10.0 | 0.00 | 0.00 | 0.00 | 39 | 1015.5 |
| 20260901192524 | 99 | 142 | 3.0 | 10.0 | 0.00 | 0.00 | 0.00 | 38 | 1015.4 |
| 20260901192025 | 100 | 184 | 3.0 | 9.0 | 0.00 | 0.00 | 0.00 | 39 | 1015.5 |
| 20260901191545 | 99 | 136 | 4.0 | 9.0 | 0.00 | 0.00 | 0.00 | 38 | 1015.6 |
| 20260901191024 | 97 | 0 | 0.0 | 8.0 | 0.00 | 0.00 | 0.00 | 40 | 1015.6 |
| 20260901190524 | 98 | 70 | 1.0 | 8.0 | 0.00 | 0.00 | 0.00 | 39 | 1015.9 |
| 20260901190051 | 98 | 90 | 3.0 | 8.0 | 0.00 | 0.00 | 0.00 | 39 | 1015.9 |
| 20260901185526 | 98 | 71 | 2.0 | 8.0 | 0.00 | 0.00 | 0.00 | 40 | 1016.0 |
| 20260901185024 | 96 | 136 | 2.0 | 7.0 | 0.00 | 0.00 | 0.00 | 42 | 1016.2 |
| 20260901184551 | 97 | 212 | 1.0 | 7.0 | 0.00 | 0.00 | 0.00 | 43 | 1016.2 |
| 20260901184025 | 96 | 190 | 2.0 | 7.0 | 0.00 | 0.00 | 0.00 | 43 | 1016.3 |
| 20260901183525 | 96 | 197 | 1.0 | 7.0 | 0.00 | 0.00 | 0.00 | 44 | 1016.4 |
| 20260901183045 | 97 | 184 | 1.0 | 4.0 | 0.00 | 0.00 | 0.00 | 43 | 1016.4 |
| 20260901182524 | 96 | 190 | 1.0 | 7.0 | 0.00 | 0.00 | 0.00 | 43 | 1016.5 |
| 20260901182025 | 98 | 138 | 3.0 | 12.0 | 0.00 | 0.00 | 0.00 | 41 | 1016.6 |
| 20260901181549 | 97 | 16 | 3.0 | 12.0 | 0.00 | 0.00 | 0.00 | 42 | 1016.5 |
| 20260901181024 | 96 | 150 | 2.0 | 7.0 | 0.00 | 0.00 | 0.00 | 43 | 1016.6 |
| 20260901180524 | 94 | 0 | 0.0 | 5.0 | 0.00 | 0.00 | 0.00 | 47 | 1016.7 |
| 20260901180043 | 94 | 0 | 1.0 | 8.0 | 0.00 | 0.00 | 0.00 | 45 | 1016.8 |
| 20260901175527 | 95 | 165 | 2.0 | 8.0 | 0.00 | 0.00 | 0.00 | 46 | 1016.9 |
| 20260901175024 | 93 | 158 | 2.0 | 7.0 | 0.00 | 0.00 | 0.00 | 49 | 1017.0 |
| 20260901174547 | 92 | 0 | 1.0 | 4.0 | 0.00 | 0.00 | 0.00 | 49 | 1017.1 |
| 20260901174026 | 92 | 200 | 0.0 | 4.0 | 0.00 | 0.00 | 0.00 | 48 | 1017.1 |
| 20260901173524 | 93 | 0 | 0.0 | 3.0 | 0.00 | 0.00 | 0.00 | 48 | 1017.1 |
| 20260901173047 | 93 | 0 | 0.0 | 3.0 | 0.00 | 0.00 | 0.00 | 49 | 1017.1 |
| 20260901172524 | 94 | 225 | 0.0 | 3.0 | 0.00 | 0.00 | 0.00 | 48 | 1017.3 |
| 20260901172025 | 95 | 140 | 0.0 | 8.0 | 0.00 | 0.00 | 0.00 | 44 | 1017.3 |
| 20260901171556 | 97 | 192 | 2.0 | 8.0 | 0.00 | 0.00 | 0.00 | 44 | 1017.3 |
| 20260901171022 | 96 | 159 | 1.0 | 8.0 | 0.00 | 0.00 | 0.00 | 45 | 1017.4 |
| 20260901170523 | 96 | 33 | 1.0 | 8.0 | 0.00 | 0.00 | 0.00 | 45 | 1017.6 |
| 20260901170050 | 95 | 79 | 1.0 | 7.0 | 0.00 | 0.00 | 0.00 | 46 | 1017.7 |
| 20260901165525 | 94 | 0 | 0.0 | 2.0 | 0.00 | 0.00 | 0.00 | 48 | 1017.7 |
| 20260901165027 | 92 | 0 | 0.0 | 2.0 | 0.00 | 0.00 | 0.00 | 50 | 1017.8 |
| 20260901164555 | 92 | 0 | 0.0 | 3.0 | 0.00 | 0.00 | 0.00 | 51 | 1017.9 |
| 20260901164025 | 94 | 221 | 0.0 | 5.0 | 0.00 | 0.00 | 0.00 | 49 | 1017.9 |
| 20260901163524 | 96 | 213 | 0.0 | 5.0 | 0.00 | 0.00 | 0.00 | 46 | 1017.9 |
| 20260901163044 | 96 | 0 | 1.0 | 4.0 | 0.00 | 0.00 | 0.00 | 48 | 1017.9 |
| 20260901162523 | 95 | 121 | 1.0 | 3.0 | 0.00 | 0.00 | 0.00 | 48 | 1017.9 |
| 20260901162023 | 95 | 169 | 0.0 | 3.0 | 0.00 | 0.00 | 0.00 | 48 | 1017.9 |
| 20260901161548 | 95 | 0 | 0.0 | 4.0 | 0.00 | 0.00 | 0.00 | 47 | 1017.8 |
| 20260901161023 | 95 | 289 | 0.0 | 6.0 | 0.00 | 0.00 | 0.00 | 48 | 1017.9 |
| 20260901160523 | 94 | 232 | 1.0 | 6.0 | 0.00 | 0.00 | 0.00 | 49 | 1017.8 |
| 20260901160045 | 93 | 167 | 1.0 | 6.0 | 0.00 | 0.00 | 0.00 | 51 | 1017.8 |
| 20260901155523 | 93 | 160 | 1.0 | 4.0 | 0.00 | 0.00 | 0.00 | 51 | 1017.8 |
| 20260901155023 | 93 | 188 | 1.0 | 4.0 | 0.00 | 0.00 | 0.00 | 50 | 1017.9 |
| 20260901154541 | 93 | 277 | 1.0 | 4.0 | 0.00 | 0.00 | 0.00 | 50 | 1017.8 |
| 20260901154028 | 92 | 251 | 0.0 | 6.0 | 0.00 | 0.00 | 0.00 | 52 | 1017.8 |
| 20260901153525 | 93 | 78 | 1.0 | 6.0 | 0.00 | 0.00 | 0.00 | 52 | 1017.7 |
| 20260901153047 | 93 | 132 | 1.0 | 6.0 | 0.00 | 0.00 | 0.00 | 51 | 1017.7 |
| 20260901152528 | 92 | 246 | 0.0 | 5.0 | 0.00 | 0.00 | 0.00 | 52 | 1017.8 |
| 20260901152028 | 92 | 0 | 0.0 | 4.0 | 0.00 | 0.00 | 0.00 | 52 | 1017.7 |
| 20260901151545 | 92 | 173 | 1.0 | 7.0 | 0.00 | 0.00 | 0.00 | 53 | 1017.8 |
| 20260901151024 | 91 | 219 | 1.0 | 7.0 | 0.00 | 0.00 | 0.00 | 54 | 1017.7 |
| 20260901150525 | 90 | 0 | 1.0 | 7.0 | 0.00 | 0.00 | 0.00 | 55 | 1017.8 |
| 20260901150043 | 90 | 144 | 1.0 | 7.0 | 0.00 | 0.00 | 0.00 | 57 | 1017.9 |
| 20260901145524 | 89 | 159 | 1.0 | 5.0 | 0.00 | 0.00 | 0.00 | 58 | 1017.9 |
| 20260901145027 | 89 | 0 | 0.0 | 2.0 | 0.00 | 0.00 | 0.00 | 58 | 1017.9 |
| 20260901144541 | 89 | 0 | 0.0 | 2.0 | 0.00 | 0.00 | 0.00 | 59 | 1017.9 |
| 20260901144025 | 88 | 0 | 0.0 | 3.0 | 0.00 | 0.00 | 0.00 | 60 | 1017.9 |
| 20260901143526 | 88 | 249 | 0.0 | 5.0 | 0.00 | 0.00 | 0.00 | 60 | 1017.9 |
| 20260901143100 | 88 | 166 | 1.0 | 5.0 | 0.00 | 0.00 | 0.00 | 61 | 1017.9 |
| 20260901142524 | 87 | 0 | 0.0 | 3.0 | 0.00 | 0.00 | 0.00 | 61 | 1018.0 |
| 20260901142025 | 86 | 0 | 1.0 | 3.0 | 0.00 | 0.00 | 0.00 | 63 | 1017.9 |
| 20260901141544 | 86 | 217 | 0.0 | 3.0 | 0.00 | 0.00 | 0.00 | 63 | 1017.9 |
| 20260901141022 | 86 | 0 | 1.0 | 3.0 | 0.00 | 0.00 | 0.00 | 62 | 1018.0 |
| 20260901140522 | 86 | 155 | 0.0 | 5.0 | 0.00 | 0.00 | 0.00 | 63 | 1018.0 |
| 20260901140044 | 85 | 190 | 0.0 | 5.0 | 0.00 | 0.00 | 0.00 | 63 | 1018.0 |
| 20260901135525 | 85 | 213 | 0.0 | 5.0 | 0.00 | 0.00 | 0.00 | 64 | 1017.9 |
| 20260901135023 | 85 | 0 | 1.0 | 5.0 | 0.00 | 0.00 | 0.00 | 64 | 1018.0 |
| 20260901134547 | 84 | 0 | 0.0 | 5.0 | 0.00 | 0.00 | 0.00 | 65 | 1018.0 |
| 20260901134025 | 84 | 188 | 0.0 | 5.0 | 0.00 | 0.00 | 0.00 | 65 | 1018.0 |
| 20260901133525 | 84 | 0 | 1.0 | 4.0 | 0.00 | 0.00 | 0.00 | 65 | 1018.0 |
| 20260901133044 | 83 | 0 | 1.0 | 4.0 | 0.00 | 0.00 | 0.00 | 67 | 1018.0 |
| 20260901132527 | 82 | 0 | 1.0 | 6.0 | 0.00 | 0.00 | 0.00 | 68 | 1017.9 |
| 20260901132024 | 81 | 150 | 2.0 | 6.0 | 0.00 | 0.00 | 0.00 | 68 | 1017.9 |
| 20260901131542 | 81 | 165 | 0.0 | 4.0 | 0.00 | 0.00 | 0.00 | 69 | 1017.9 |
| 20260901131024 | 81 | 213 | 0.0 | 3.0 | 0.00 | 0.00 | 0.00 | 69 | 1017.8 |
| 20260901130528 | 80 | 164 | 0.0 | 3.0 | 0.00 | 0.00 | 0.00 | 70 | 1017.8 |
| 20260901130049 | 80 | 180 | 0.0 | 3.0 | 0.00 | 0.00 | 0.00 | 70 | 1017.7 |
| 20260901125520 | 80 | 0 | 0.0 | 3.0 | 0.00 | 0.00 | 0.00 | 70 | 1017.6 |
| 20260901125025 | 79 | 120 | 0.0 | 3.0 | 0.00 | 0.00 | 0.00 | 70 | 1017.5 |
| 20260901124548 | 79 | 156 | 0.0 | 1.0 | 0.00 | 0.00 | 0.00 | 71 | 1017.4 |
| 20260901124024 | 79 | 0 | 0.0 | 1.0 | 0.00 | 0.00 | 0.00 | 70 | 1017.4 |
| 20260901123524 | 79 | 156 | 0.0 | 1.0 | 0.00 | 0.00 | 0.00 | 70 | 1017.3 |
| 20260901123123 | 79 | 0 | 0.0 | 1.0 | 0.00 | 0.00 | 0.00 | 70 | 1017.2 |
| 20260901122523 | 79 | 0 | 0.0 | 0.0 | 0.00 | 0.00 | 0.00 | 71 | 1017.1 |
| 20260901122022 | 79 | 0 | 0.0 | 0.0 | 0.00 | 0.00 | 0.00 | 71 | 1017.1 |
| 20260901121559 | 79 | 0 | 0.0 | 0.0 | 0.00 | 0.00 | 0.00 | 70 | 1017.1 |
| 20260901121023 | 79 | 0 | 0.0 | 1.0 | 0.00 | 0.00 | 0.00 | 70 | 1017.1 |
| 20260901120526 | 79 | 0 | 0.0 | 1.0 | 0.00 | 0.00 | 0.00 | 70 | 1017.0 |
| 20260901120048 | 79 | 0 | 0.0 | 1.0 | 0.00 | 0.00 | 0.00 | 70 | 1017.0 |
| 20260901115528 | 79 | 0 | 0.0 | 2.0 | 0.00 | 0.00 | 0.00 | 69 | 1017.0 |
| 20260901115024 | 79 | 142 | 0.0 | 2.0 | 0.00 | 0.00 | 0.00 | 70 | 1017.0 |
| 20260901114545 | 79 | 155 | 0.0 | 1.0 | 0.00 | 0.00 | 0.00 | 70 | 1016.9 |
| 20260901114026 | 79 | 0 | 0.0 | 1.0 | 0.00 | 0.00 | 0.00 | 69 | 1016.9 |
| 20260901113527 | 79 | 0 | 0.0 | 1.0 | 0.00 | 0.00 | 0.00 | 69 | 1016.7 |
| 20260901113044 | 79 | 0 | 0.0 | 1.0 | 0.00 | 0.00 | 0.00 | 69 | 1016.8 |
| 20260901112522 | 79 | 0 | 0.0 | 1.0 | 0.00 | 0.00 | 0.00 | 69 | 1016.8 |
| 20260901112027 | 79 | 0 | 0.0 | 2.0 | 0.00 | 0.00 | 0.00 | 69 | 1016.7 |
| 20260901111550 | 79 | 0 | 0.0 | 2.0 | 0.00 | 0.00 | 0.00 | 69 | 1016.6 |
| 20260901111028 | 79 | 150 | 0.0 | 2.0 | 0.00 | 0.00 | 0.00 | 69 | 1016.5 |
| 20260901110525 | 80 | 0 | 0.0 | 2.0 | 0.00 | 0.00 | 0.00 | 68 | 1016.5 |
| 20260901110046 | 80 | 157 | 0.0 | 2.0 | 0.00 | 0.00 | 0.00 | 67 | 1016.5 |
| 20260901105525 | 80 | 0 | 0.0 | 2.0 | 0.00 | 0.00 | 0.00 | 67 | 1016.4 |
| 20260901105028 | 80 | 152 | 0.0 | 5.0 | 0.00 | 0.00 | 0.00 | 66 | 1016.5 |
| 20260901104556 | 80 | 0 | 0.0 | 5.0 | 0.00 | 0.00 | 0.00 | 66 | 1016.4 |
| 20260901104025 | 80 | 0 | 0.0 | 3.0 | 0.00 | 0.00 | 0.00 | 65 | 1016.5 |
| 20260901103525 | 80 | 182 | 1.0 | 3.0 | 0.00 | 0.00 | 0.00 | 66 | 1016.5 |
| 20260901103047 | 81 | 0 | 0.0 | 3.0 | 0.00 | 0.00 | 0.00 | 65 | 1016.5 |
| 20260901102525 | 81 | 172 | 1.0 | 2.0 | 0.00 | 0.00 | 0.00 | 65 | 1016.5 |
| 20260901102025 | 81 | 176 | 0.0 | 3.0 | 0.00 | 0.00 | 0.00 | 64 | 1016.5 |
| 20260901101542 | 81 | 0 | 0.0 | 3.0 | 0.00 | 0.00 | 0.00 | 64 | 1016.5 |
| 20260901101028 | 81 | 165 | 1.0 | 6.0 | 0.00 | 0.00 | 0.00 | 64 | 1016.5 |
| 20260901100524 | 81 | 0 | 1.0 | 6.0 | 0.00 | 0.00 | 0.00 | 64 | 1016.5 |
| 20260901100059 | 81 | 165 | 1.0 | 6.0 | 0.00 | 0.00 | 0.00 | 64 | 1016.6 |
| 20260901095524 | 81 | 155 | 1.0 | 6.0 | 0.00 | 0.00 | 0.00 | 64 | 1016.7 |
| 20260901095024 | 81 | 165 | 0.0 | 4.0 | 0.00 | 0.00 | 0.00 | 64 | 1016.7 |
| 20260901094542 | 81 | 189 | 1.0 | 4.0 | 0.00 | 0.00 | 0.00 | 64 | 1016.6 |
| 20260901094024 | 81 | 0 | 0.0 | 3.0 | 0.00 | 0.00 | 0.00 | 64 | 1016.5 |
| 20260901093522 | 81 | 0 | 0.0 | 3.0 | 0.00 | 0.00 | 0.00 | 63 | 1016.5 |
| 20260901093059 | 82 | 147 | 0.0 | 4.0 | 0.00 | 0.00 | 0.00 | 63 | 1016.6 |
| 20260901092526 | 82 | 186 | 0.0 | 4.0 | 0.00 | 0.00 | 0.00 | 63 | 1016.6 |
| 20260901092021 | 82 | 0 | 0.0 | 3.0 | 0.00 | 0.00 | 0.00 | 62 | 1016.6 |
| 20260901091556 | 82 | 153 | 0.0 | 4.0 | 0.00 | 0.00 | 0.00 | 62 | 1016.7 |
| 20260901091023 | 82 | 163 | 0.0 | 4.0 | 0.00 | 0.00 | 0.00 | 62 | 1016.6 |
| 20260901090528 | 82 | 0 | 0.0 | 4.0 | 0.00 | 0.00 | 0.00 | 61 | 1016.6 |
| 20260901090046 | 83 | 156 | 0.0 | 4.0 | 0.00 | 0.00 | 0.00 | 61 | 1016.6 |
| 20260901085524 | 83 | 157 | 1.0 | 3.0 | 0.00 | 0.00 | 0.00 | 61 | 1016.4 |
| 20260901085024 | 83 | 92 | 1.0 | 2.0 | 0.00 | 0.00 | 0.00 | 61 | 1016.3 |
| 20260901084541 | 83 | 150 | 0.0 | 2.0 | 0.00 | 0.00 | 0.00 | 61 | 1016.2 |
| 20260901084024 | 83 | 0 | 0.0 | 2.0 | 0.00 | 0.00 | 0.00 | 61 | 1016.2 |
| 20260901083524 | 83 | 0 | 0.0 | 3.0 | 0.00 | 0.00 | 0.00 | 60 | 1016.1 |
| 20260901083048 | 83 | 0 | 0.0 | 3.0 | 0.00 | 0.00 | 0.00 | 60 | 1016.0 |
| 20260901082526 | 83 | 0 | 1.0 | 2.0 | 0.00 | 0.00 | 0.00 | 60 | 1016.0 |
| 20260901082026 | 83 | 243 | 0.0 | 3.0 | 0.00 | 0.00 | 0.00 | 60 | 1016.1 |
| 20260901081545 | 83 | 174 | 0.0 | 3.0 | 0.00 | 0.00 | 0.00 | 60 | 1016.0 |
| 20260901081028 | 83 | 147 | 1.0 | 3.0 | 0.00 | 0.00 | 0.00 | 59 | 1016.1 |
| 20260901080525 | 84 | 171 | 0.0 | 3.0 | 0.00 | 0.00 | 0.00 | 59 | 1016.2 |
| 20260901080045 | 84 | 0 | 1.0 | 5.0 | 0.00 | 0.00 | 0.00 | 58 | 1016.1 |
| 20260901075525 | 84 | 182 | 1.0 | 5.0 | 0.00 | 0.00 | 0.00 | 58 | 1016.1 |
| 20260901075023 | 84 | 159 | 1.0 | 4.0 | 0.00 | 0.00 | 0.00 | 58 | 1016.2 |
| 20260901074542 | 84 | 148 | 1.0 | 4.0 | 0.00 | 0.00 | 0.00 | 58 | 1016.2 |
| 20260901074024 | 84 | 138 | 1.0 | 7.0 | 0.00 | 0.00 | 0.00 | 57 | 1016.2 |
| 20260901073524 | 84 | 175 | 1.0 | 7.0 | 0.00 | 0.00 | 0.00 | 57 | 1016.2 |
| 20260901073048 | 84 | 164 | 0.0 | 4.0 | 0.00 | 0.00 | 0.00 | 57 | 1016.2 |
| 20260901072524 | 84 | 184 | 1.0 | 4.0 | 0.00 | 0.00 | 0.00 | 57 | 1016.2 |
| 20260901072025 | 84 | 0 | 1.0 | 5.0 | 0.00 | 0.00 | 0.00 | 57 | 1016.2 |
| 20260901071546 | 85 | 164 | 2.0 | 5.0 | 0.00 | 0.00 | 0.00 | 56 | 1016.2 |
| 20260901071029 | 85 | 168 | 1.0 | 4.0 | 0.00 | 0.00 | 0.00 | 56 | 1016.1 |
| 20260901070528 | 84 | 0 | 1.0 | 5.0 | 0.00 | 0.00 | 0.00 | 56 | 1016.2 |
| 20260901070051 | 85 | 0 | 1.0 | 5.0 | 0.00 | 0.00 | 0.00 | 56 | 1016.2 |
| 20260901065523 | 85 | 169 | 1.0 | 5.0 | 0.00 | 0.00 | 0.00 | 55 | 1016.1 |
| 20260901065020 | 85 | 187 | 1.0 | 5.0 | 0.00 | 0.00 | 0.00 | 55 | 1016.2 |
| 20260901064545 | 85 | 152 | 1.0 | 4.0 | 0.00 | 0.00 | 0.00 | 55 | 1016.1 |
| 20260901064023 | 85 | 141 | 1.0 | 3.0 | 0.00 | 0.00 | 0.00 | 55 | 1016.1 |
| 20260901063521 | 85 | 139 | 0.0 | 5.0 | 0.00 | 0.00 | 0.00 | 55 | 1016.0 |
| 20260901063046 | 85 | 167 | 0.0 | 5.0 | 0.00 | 0.00 | 0.00 | 55 | 1016.0 |
| 20260901062527 | 85 | 190 | 1.0 | 4.0 | 0.00 | 0.00 | 0.00 | 54 | 1015.9 |
| 20260901062029 | 85 | 166 | 1.0 | 4.0 | 0.00 | 0.00 | 0.00 | 54 | 1016.0 |
| 20260901061545 | 85 | 179 | 1.0 | 5.0 | 0.00 | 0.00 | 0.00 | 53 | 1016.0 |
| 20260901061024 | 85 | 181 | 1.0 | 5.0 | 0.00 | 0.00 | 0.00 | 53 | 1016.0 |
| 20260901060525 | 86 | 167 | 1.0 | 5.0 | 0.00 | 0.00 | 0.00 | 53 | 1015.9 |
| 20260901060044 | 86 | 153 | 2.0 | 5.0 | 0.00 | 0.00 | 0.00 | 52 | 1015.8 |
| 20260901055524 | 86 | 175 | 1.0 | 5.0 | 0.00 | 0.00 | 0.00 | 51 | 1015.7 |
| 20260901055025 | 86 | 159 | 0.0 | 5.0 | 0.00 | 0.00 | 0.00 | 51 | 1015.7 |
| 20260901054546 | 86 | 190 | 2.0 | 5.0 | 0.00 | 0.00 | 0.00 | 50 | 1015.7 |
| 20260901054025 | 86 | 170 | 2.0 | 9.0 | 0.00 | 0.00 | 0.00 | 50 | 1015.6 |
| 20260901053524 | 86 | 122 | 1.0 | 9.0 | 0.00 | 0.00 | 0.00 | 49 | 1015.6 |
| 20260901053047 | 87 | 168 | 1.0 | 6.0 | 0.00 | 0.00 | 0.00 | 49 | 1015.6 |
| 20260901052528 | 86 | 167 | 1.0 | 6.0 | 0.00 | 0.00 | 0.00 | 48 | 1015.6 |
| 20260901052024 | 86 | 157 | 1.0 | 6.0 | 0.00 | 0.00 | 0.00 | 48 | 1015.5 |
| 20260901051545 | 86 | 169 | 1.0 | 5.0 | 0.00 | 0.00 | 0.00 | 48 | 1015.5 |
| 20260901051026 | 87 | 165 | 1.0 | 5.0 | 0.00 | 0.00 | 0.00 | 47 | 1015.4 |
| 20260901050527 | 87 | 171 | 1.0 | 5.0 | 0.00 | 0.00 | 0.00 | 47 | 1015.4 |
| 20260901050047 | 87 | 163 | 1.0 | 5.0 | 0.00 | 0.00 | 0.00 | 47 | 1015.4 |